Lalas, Greece

5:52 PM EET on December 09, 2016 (GMT +0200)
Eleftherios Venizelos International

Weather History for LGAV - February, 2013

Change the Weather History Date:

Sunday, February 3, 2013

  Actual Average Record
Temperature  
Mean Temperature 62 °F -  
Max Temperature 66 °F - - ()
Min Temperature 57 °F - - ()
Degree Days  
Heating Degree Days 4    
Growing Degree Days 12 (Base 50)    
Moisture  
Dew Point 50 °F    
Average Humidity 67    
Maximum Humidity 82    
Minimum Humidity 49    
Precipitation  
Precipitation 0.00 in - - ()
Sea Level Pressure  
Sea Level Pressure 29.84 in    
Wind  
Wind Speed 23 mph ()    
Max Wind Speed 38 mph    
Max Gust Speed 51 mph    
Visibility 6.2 miles    
Events      
T = Trace of Precipitation, MM = Missing Value Source: Averaged Metar Reports

Daily Weather History Graph

Daily Weather History Graph

Search for Another Location

Airport or City:

Trip Planner

Search our weather history database for the weather conditions in past years. The results will help you decide how hot, cold, wet, or windy it might be!

Date:

Astronomy

Feb. 03, 2013 Rise Set
Actual Time 7:26 AM EET 5:49 PM EET
Civil Twilight 6:59 AM EET 6:17 PM EET
Nautical Twilight 6:27 AM EET 6:48 PM EET
Astronomical Twilight 5:57 AM EET 7:19 PM EET
Moon 12:32 AM EET (2/3) 11:13 AM EET (2/3)
Length of Visible Light 11h 18m
Length of Day
10h 22m
Waning Gibbous, 52% of the Moon is Illuminated
Feb 3
Waning Gibbous
Feb 3
Last Quarter
Feb 10
New
Feb 17
First Quarter
Feb 25
Full

Hourly Weather History & Observations

Time (EET) Temp. Dew Point Humidity Pressure Visibility Wind Dir Wind Speed Gust Speed Precip Events Conditions
12:20 AM 57.2 °F 51.8 °F 82% 29.83 in 6.2 mi South 24.2 mph - N/A   Mostly Cloudy
12:50 AM 57.2 °F 50.0 °F 77% 29.83 in 6.2 mi SSW 19.6 mph - N/A   Mostly Cloudy
1:20 AM 57.2 °F 48.2 °F 72% 29.83 in 6.2 mi SSW 16.1 mph - N/A   Mostly Cloudy
1:50 AM 59.0 °F 51.8 °F 77% 29.83 in 6.2 mi South 19.6 mph - N/A   Mostly Cloudy
2:20 AM 59.0 °F 51.8 °F 77% 29.83 in 6.2 mi South 21.9 mph - N/A   Mostly Cloudy
2:50 AM 59.0 °F 51.8 °F 77% 29.83 in 6.2 mi South 26.5 mph - N/A   Mostly Cloudy
3:20 AM 59.0 °F 51.8 °F 77% 29.83 in 6.2 mi South 24.2 mph - N/A   Mostly Cloudy
3:50 AM 59.0 °F 51.8 °F 77% 29.83 in 6.2 mi South 26.5 mph - N/A   Mostly Cloudy
4:20 AM 59.0 °F 51.8 °F 77% 29.83 in 6.2 mi South 26.5 mph - N/A   Mostly Cloudy
4:50 AM 59.0 °F 51.8 °F 77% 29.83 in 6.2 mi South 25.3 mph - N/A   Mostly Cloudy
5:20 AM 59.0 °F 51.8 °F 77% 29.83 in 6.2 mi South 26.5 mph - N/A   Mostly Cloudy
5:50 AM 59.0 °F 51.8 °F 77% 29.83 in 6.2 mi SSW 27.6 mph - N/A   Mostly Cloudy
6:20 AM 59.0 °F 51.8 °F 77% 29.83 in 6.2 mi South 24.2 mph - N/A   Scattered Clouds
6:50 AM 59.0 °F 50.0 °F 72% 29.83 in 6.2 mi SSW 25.3 mph - N/A   Scattered Clouds
7:20 AM 59.0 °F 50.0 °F 72% 29.83 in 6.2 mi South 24.2 mph 35.7 mph N/A   Scattered Clouds
7:50 AM 59.0 °F 50.0 °F 72% 29.83 in 6.2 mi South 23.0 mph - N/A   Scattered Clouds
8:20 AM 59.0 °F 50.0 °F 72% 29.86 in 6.2 mi South 23.0 mph - N/A   Scattered Clouds
8:50 AM 60.8 °F 48.2 °F 63% 29.86 in 6.2 mi South 13.8 mph - N/A   Scattered Clouds
9:20 AM 62.6 °F 48.2 °F 59% 29.86 in 6.2 mi South 23.0 mph - N/A   Scattered Clouds
9:50 AM 62.6 °F 48.2 °F 59% 29.86 in 6.2 mi South 23.0 mph 35.7 mph N/A   Scattered Clouds
10:20 AM 64.4 °F 48.2 °F 56% 29.86 in 6.2 mi South 26.5 mph - N/A   Scattered Clouds
10:50 AM 64.4 °F 46.4 °F 52% 29.86 in 6.2 mi South 29.9 mph - N/A   Scattered Clouds
11:20 AM 64.4 °F 46.4 °F 52% 29.83 in 6.2 mi South 28.8 mph 41.4 mph N/A   Scattered Clouds
11:50 AM 66.2 °F 46.4 °F 49% 29.83 in 6.2 mi South 36.8 mph - N/A   Scattered Clouds
12:20 PM 64.4 °F 46.4 °F 52% 29.80 in 6.2 mi South 36.8 mph 48.3 mph N/A   Mostly Cloudy
12:50 PM 66.2 °F 46.4 °F 49% 29.80 in 6.2 mi South 36.8 mph - N/A   Mostly Cloudy
1:20 PM 66.2 °F 48.2 °F 52% 29.80 in 6.2 mi South 38.0 mph 50.6 mph N/A   Mostly Cloudy
1:50 PM 66.2 °F 46.4 °F 49% 29.83 in 6.2 mi South 33.4 mph - N/A   Mostly Cloudy
2:20 PM 66.2 °F 48.2 °F 52% 29.80 in 6.2 mi SSW 32.2 mph 43.7 mph N/A   Mostly Cloudy
2:50 PM 66.2 °F 48.2 °F 52% 29.80 in 6.2 mi SSW 33.4 mph - N/A   Mostly Cloudy
3:20 PM 64.4 °F 48.2 °F 56% 29.80 in 6.2 mi South 29.9 mph - N/A   Mostly Cloudy
3:50 PM 64.4 °F 48.2 °F 56% 29.80 in 6.2 mi South 32.2 mph 43.7 mph N/A   Mostly Cloudy
4:20 PM 64.4 °F 48.2 °F 56% 29.80 in 6.2 mi South 34.5 mph - N/A   Scattered Clouds
4:50 PM 62.6 °F 48.2 °F 59% 29.77 in 6.2 mi South 33.4 mph - N/A   Scattered Clouds
5:20 PM 62.6 °F 48.2 °F 59% 29.80 in 6.2 mi SSW 29.9 mph - N/A   Scattered Clouds
5:50 PM 60.8 °F 50.0 °F 68% 29.80 in 6.2 mi South 25.3 mph - N/A   Scattered Clouds
6:20 PM 60.8 °F 50.0 °F 68% 29.83 in 6.2 mi SSW 31.1 mph - N/A   Scattered Clouds
6:50 PM 60.8 °F 50.0 °F 68% 29.86 in 6.2 mi South 28.8 mph - N/A   Scattered Clouds
7:20 PM 59.0 °F 50.0 °F 72% 29.86 in 6.2 mi South 28.8 mph - N/A   Scattered Clouds
7:50 PM 59.0 °F 50.0 °F 72% 29.89 in 6.2 mi South 21.9 mph - N/A   Partly Cloudy
8:20 PM 59.0 °F 50.0 °F 72% 29.89 in 6.2 mi South 20.7 mph - N/A   Partly Cloudy
8:50 PM 59.0 °F 50.0 °F 72% 29.92 in 6.2 mi South 18.4 mph - N/A   Partly Cloudy
9:20 PM 59.0 °F 50.0 °F 72% 29.92 in 6.2 mi South 19.6 mph - N/A   Partly Cloudy
9:50 PM 59.0 °F 50.0 °F 72% 29.92 in 6.2 mi South 20.7 mph - N/A   Partly Cloudy
10:20 PM 59.0 °F 50.0 °F 72% 29.92 in 6.2 mi South 15.0 mph - N/A   Partly Cloudy
10:50 PM 59.0 °F 51.8 °F 77% 29.95 in 6.2 mi SSW 9.2 mph - N/A   Scattered Clouds
11:20 PM 57.2 °F 50.0 °F 77% 29.95 in 6.2 mi SSE 4.6 mph - N/A   Scattered Clouds
11:50 PM 59.0 °F 50.0 °F 72% 29.95 in 6.2 mi Variable 2.3 mph - N/A   Scattered Clouds